Location: Archamps
(46.1365°N, 6.1329°E)
Time: 15:52:25
(UTC+00:00)

CSL-04 Rocket - Visible Passes

Search period start: 30 September 2023 00:00
Search period end: 10 October 2023 00:00
Orbit: 805 x 860 km, 98.8° (Epoch: 29 September)

Date Brightness Start Highest point End Pass type
(mag) Time Alt. Az. Time Alt. Az. Time Alt. Az.
30 Sep 3.5 19:15:47 35° SSE 19:18:03 73° ENE 19:23:22 10° N visible
30 Sep 6.0 20:57:25 15° WSW 20:58:57 16° W 21:02:14 10° NW visible
01 Oct 3.7 18:58:36 30° SE 19:00:59 52° ENE 19:06:09 10° N visible
01 Oct 5.6 20:40:14 21° WSW 20:41:38 23° W 20:45:47 10° NW visible
02 Oct 4.1 18:41:26 24° ESE 18:43:57 38° ENE 18:48:51 10° N visible
02 Oct 5.1 20:23:04 28° WSW 20:24:20 32° W 20:29:05 10° NNW visible
03 Oct 4.5 18:24:15 19° ESE 18:26:58 28° ENE 18:31:28 10° N visible
03 Oct 4.5 20:05:53 38° SW 20:07:05 44° W 20:12:11 10° NNW visible
04 Oct 4.9 18:07:04 14° E 18:10:01 21° ENE 18:13:58 10° NNE visible
04 Oct 3.9 19:48:42 49° SSW 19:49:53 62° WSW 19:55:12 10° NNW visible
05 Oct 5.2 17:50:00 10° E 17:53:08 16° NE 17:56:17 10° NNE visible
05 Oct 3.5 19:31:32 55° S 19:32:44 86° WSW 19:38:07 10° NNW visible
05 Oct 6.3 21:13:09 12° W 21:13:52 12° W 21:15:52 10° WNW visible
06 Oct 5.5 17:34:22 10° ENE 17:36:17 12° NE 17:38:11 10° NNE visible
06 Oct 3.5 19:14:20 50° SE 19:15:37 69° ENE 19:20:58 10° N visible
06 Oct 5.9 20:55:58 17° W 20:56:30 17° W 20:59:58 10° NW visible
07 Oct 3.8 18:57:09 40° ESE 18:58:33 50° ENE 19:03:43 10° N visible
07 Oct 5.5 20:38:47 24° W 20:39:10 24° W 20:43:28 10° NW visible
08 Oct 4.2 18:39:58 30° E 18:41:32 37° ENE 18:46:25 10° N visible
08 Oct 5.0 20:21:36 33° WSW 20:21:53 33° W 20:26:42 10° NNW visible
09 Oct 4.6 18:22:47 23° E 18:24:33 27° ENE 18:29:01 10° N visible
09 Oct 4.4 20:04:25 46° WSW 20:04:38 47° W 20:09:48 10° NNW visible
